This is the latest recevied weather packets stored in our database for station/object AD7ZD. If no packets are shown the sender has not sent any weather packets the latest 10 day(s).
| Time | Temp. | Humidity | Pressure | Rain* | Wind** | Luminosity | Snow |
|---|---|---|---|---|---|---|---|
| 1777857259 | 15.56° C | 43% | 1009.2 hPa | 0 mm | - | 38 W/m² | - |
| 1777856955 | 15.56° C | 43% | 1009.2 hPa | 0 mm | - | 37 W/m² | - |
| 1777856651 | 15° C | 43% | 1009 hPa | 0 mm | - | 34 W/m² | - |
| 1777856348 | 15° C | 43% | 1009.2 hPa | 0 mm | - | 35 W/m² | - |
| 1777856044 | 15.56° C | 43% | 1009.3 hPa | 0 mm | - | 33 W/m² | - |
| 1777855742 | 15° C | 44% | 1009.4 hPa | 0 mm | - | 29 W/m² | - |
| 1777855439 | 15° C | 44% | 1009.3 hPa | 0 mm | - | 29 W/m² | - |
| 1777855135 | 15.56° C | 43% | 1009.5 hPa | 0 mm | - | 31 W/m² | - |
| 1777854833 | 15° C | 44% | 1009.5 hPa | 0 mm | - | 34 W/m² | - |
| 1777854529 | 15.56° C | 43% | 1009.6 hPa | 0 mm | - | 39 W/m² | - |
| 1777854226 | 15.56° C | 45% | 1009.3 hPa | 0 mm | - | 35 W/m² | - |
| 1777853924 | 15.56° C | 43% | 1009.3 hPa | 0 mm | - | 32 W/m² | - |
| 1777853621 | 16.11° C | 41% | 1008.9 hPa | 0 mm | - | 32 W/m² | - |
| 1777853317 | 16.11° C | 40% | 1008.9 hPa | 0 mm | - | 50 W/m² | - |
| 1777853014 | 16.11° C | 40% | 1009.2 hPa | 0 mm | - | 72 W/m² | - |
| 1777852712 | 17.22° C | 39% | 1008.9 hPa | 0 mm | - | 83 W/m² | - |
| 1777852410 | 17.78° C | 37% | 1008.4 hPa | 0 mm | - | 126 W/m² | - |
| 1777852107 | 17.22° C | 37% | 1008.4 hPa | 0 mm | - | 181 W/m² | - |
| 1777851805 | 17.78° C | 37% | 1008.1 hPa | 0 mm | - | 231 W/m² | - |
| 1777851502 | 17.22° C | 37% | 1008.4 hPa | 0 mm | - | 194 W/m² | - |
| 1777851198 | 17.78° C | 36% | 1008.5 hPa | 0 mm | - | 177 W/m² | - |
| 1777850894 | 18.33° C | 35% | 1008.5 hPa | 0 mm | - | 185 W/m² | - |
| 1777850592 | 17.78° C | 37% | 1008.7 hPa | 0 mm | - | 263 W/m² | - |
| 1777850290 | 17.22° C | 38% | 1008.7 hPa | 0 mm | - | 209 W/m² | - |
| 1777849987 | 16.67° C | 38% | 1008.7 hPa | 0 mm | - | 181 W/m² | - |
* Rain latest hour (hover to see other rain measurements)
** Current wind speed in m/s (hover to see current wind gust speed)